SCP
0 0 0 0 0 0 0 0 0 0 0 0 0 0 0 0 0 0 0 0 0 0 0 0 0 0 0 0 0 0 0 0 0 0 0 0 0 0 0 0 0 0 0 0 0 0 0 0 0
0 0 0 0 0 0 0 0 0 0 0 0 0 0 0 0 0 0 0 0 0 0 0 0 0 0 0 0 0 0 0 0 0 0 0 0 0 0 0 0 0 0 0 0 0 0 0 0 0
0 0 0 0 0 0 0 0 0 0 0 0 0 0 0 0 0 0 0 0 1 1 0 0 0 0 0 0 0 0 0 0 0 0 0 0 0 0 0 0 0 0 0 0 0 0 0 0 0
0 0 0 0 0 0 0 0 0 0 0 0 0 0 0 0 1 1 1 1 1 1 1 0 1 1 0 0 0 0 0 0 0 0 0 0 0 0 0 0 0 0 0 0 0 -0 -0 -0 -0
0 0 0 0 0 0 0 0 0 0 0 1 1 1 0 1 1 1 1 1 1 1 1 1 1 1 0 0 0 0 0 0 0 0 0 0 0 0 0 0 0 0 0 -0 -0 -0 -0 -0 -0
0 0 0 0 0 0 0 0 0 0 0 1 1 1 1 1 1 1 1 1 1 1 1 1 1 1 1 0 0 0 0 0 0 0 0 0 0 0 0 0 0 0 0 -0 -0 -0 -0 -0 -0
0 0 0 0 0 0 0 0 0 0 1 1 1 1 1 1 1 1 1 1 1 1 1 1 1 1 0 0 0 0 0 0 0 0 0 0 0 0 0 0 0 0 -0 -0 -0 -0 -0 -0 -0
0 0 0 0 0 0 0 0 0 0 0 1 1 1 1 1 2 2 1 1 1 1 1 1 1 1 0 0 0 0 0 0 0 0 0 0 0 0 0 0 0 0 -0 -0 -0 -0 -0 -0 -0
0 0 0 0 0 0 0 0 0 0 0 1 1 1 1 2 2 2 2 1 1 1 1 1 1 1 1 0 0 0 0 0 0 0 0 0 0 -0 -0 0 0 0 -0 -0 -0 -0 0 0 0
0 0 0 0 0 0 0 0 0 0 0 1 1 1 1 2 2 3 2 2 1 1 1 1 1 1 1 1 0 0 0 0 0 0 0 0 -0 -0 -0 -0 -0 0 0 -0 -0 0 0 0 0
0 0 0 0 0 0 0 0 0 0 0 1 1 1 2 2 3 3 2 2 2 1 1 1 1 1 1 1 0 0 0 0 0 0 0 -0 -0 -0 -0 -0 -0 -0 -0 -0 -0 0 0 0 0
0 0 0 0 0 0 0 0 0 0 0 1 1 1 2 2 2 3 2 2 2 2 1 1 1 1 1 1 0 0 0 0 0 0 0 -0 -0 -0 -0 -0 -0 -0 -0 -0 -0 0 0 0 0
0 0 0 0 0 0 0 0 0 0 0 1 1 2 2 2 2 2 2 2 2 2 1 1 1 1 1 1 0 0 0 0 0 0 0 0 0 0 -0 -0 -0 -0 -0 0 0 0 0 0 0
0 0 0 0 0 0 0 0 0 0 0 1 1 2 2 2 2 2 2 2 2 2 1 1 1 1 1 0 0 0 0 0 0 0 0 0 0 0 0 0 0 0 -0 0 0 0 0 0 0
0 0 0 0 0 0 0 0 0 0 1 1 1 2 2 2 2 2 2 2 2 2 1 1 1 1 1 0 0 0 0 0 0 0 0 0 0 0 0 0 0 0 0 0 0 0 0 0 0
0 0 0 0 0 0 0 0 0 0 1 1 1 2 2 2 2 2 2 2 2 2 1 1 1 1 0 0 0 0 0 0 0 0 0 0 0 0 0 0 0 0 0 0 0 0 0 0 0
0 0 0 0 0 0 0 0 0 0 1 1 1 2 2 2 2 2 2 2 2 2 1 1 1 1 0 0 0 0 0 0 0 0 0 0 0 0 0 0 0 0 0 0 0 0 0 0 0
0 0 0 0 0 0 0 0 0 0 1 1 1 2 2 2 2 2 2 2 2 1 1 1 1 1 0 0 0 0 0 0 0 0 0 0 0 0 0 0 0 0 0 0 0 0 0 0 0
0 0 0 0 0 0 0 0 0 0 1 1 1 2 2 2 1 2 2 2 1 1 1 1 1 1 0 0 0 0 0 0 0 0 0 0 0 0 0 0 0 0 0 0 0 0 0 0 0
-0 -0 0 0 0 0 0 0 0 0 1 1 1 1 1 2 1 1 2 1 1 1 1 1 1 1 0 0 0 0 0 0 0 0 0 0 0 0 0 0 0 0 0 0 0 0 0 0 0
0 0 0 0 0 0 0 0 0 0 0 1 1 1 1 1 1 1 1 1 1 1 1 1 1 1 0 0 0 0 0 0 0 0 0 0 0 0 0 0 0 0 0 0 0 0 0 0 0
0 0 0 0 0 0 0 0 0 0 0 0 1 1 1 1 1 1 1 1 1 1 1 1 1 0 0 0 0 0 0 0 0 0 0 0 0 0 0 0 0 0 0 0 0 0 0 0 0
0 0 0 0 0 0 0 0 0 0 0 0 0 1 1 1 1 1 1 1 1 1 1 1 0 0 0 0 0 0 0 0 0 0 0 0 0 0 0 0 0 0 0 0 0 0 0 0 0
0 0 0 0 0 0 0 0 0 0 0 0 0 1 1 1 1 1 1 1 1 1 1 0 0 0 0 0 0 0 0 0 0 0 0 0 0 0 0 0 0 0 0 0 0 0 0 0 0
0 0 0 0 0 0 0 0 0 0 0 0 0 0 1 1 1 1 1 0 0 0 0 0 0 0 0 0 0 0 0 0 0 0 0 0 0 0 0 0 0 0 0 0 0 0 0 0 0
0 0 0 0 0 0 0 0 0 0 0 0 0 0 0 1 0 0 0 0 0 0 0 0 0 0 0 0 0 0 0 0 0 0 0 0 0 0 0 0 0 0 0 0 0 0 0 0 0
0 0 0 0 0 0 0 0 0 0 0 0 0 0 0 0 0 0 0 0 0 0 0 0 0 0 0 0 0 0 0 0 0 0 0 0 0 0 0 0 0 0 0 0 0 0 0 0 0
0 0 0 0 0 0 0 0 0 0 0 0 0 0 0 0 0 0 0 0 0 0 0 0 0 0 0 0 0 0 0 0 0 0 0 0 0 0 0 0 0 0 0 0 0 0 0 0 0
0 0 0 0 0 0 0 0 0 0 0 0 0 0 0 0 0 0 0 0 0 0 0 0 0 0 0 0 0 0 0 0 0 0 0 0 0 0 0 0 0 0 0 0 0 0 0 0 0
0 0 0 0 0 0 0 0 0 0 0 0 0 0 0 0 0 0 0 0 0 0 0 0 0 0 0 0 0 0 0 0 0 0 0 0 0 0 0 0 0 0 0 0 0 0 0 0 0
Wind_Speed
6 4 2 1 3 4 2 3 2 3 5 7 11 11 9 5 4 4 4 15 18 16 13 16 19 19 18 18 17 17 17 16 16 15 15 15 15 15 15 15 15 15 15 15 15 15 15 14 15
3 4 1 3 4 2 3 2 2 4 9 11 11 10 8 5 6 9 8 16 20 17 12 14 20 19 19 18 17 17 17 16 15 15 15 15 15 15 15 15 15 14 14 14 14 14 14 13 13
3 2 2 3 1 3 3 3 1 5 9 10 7 5 5 6 9 7 11 19 18 15 12 16 21 20 19 18 17 17 17 16 15 15 15 15 15 15 14 14 14 14 14 13 13 13 12 12 11
1 2 3 2 4 7 6 7 3 6 6 8 9 6 3 4 7 13 20 19 18 14 12 16 21 20 20 19 18 17 17 16 15 15 15 14 14 14 14 14 14 13 13 12 12 11 11 10 10
2 3 3 2 5 6 6 7 4 6 5 7 10 7 2 2 15 22 21 19 18 14 11 14 21 21 20 19 18 17 17 16 15 15 15 14 14 14 14 13 13 13 12 11 11 10 9 8 8
3 4 3 3 6 7 6 3 4 6 8 9 10 8 3 7 19 20 19 17 17 17 12 13 21 21 20 19 19 18 17 16 16 15 14 14 14 13 13 13 13 12 11 10 9 9 8 7 7
3 2 2 3 5 7 6 2 5 7 7 7 9 8 5 9 15 18 17 15 15 15 13 10 12 15 19 19 19 18 17 16 16 15 15 14 14 13 13 12 12 11 10 9 8 7 6 6 5
4 2 2 3 4 5 4 1 5 8 6 7 8 10 9 12 15 16 15 14 13 12 12 10 9 9 9 11 17 18 17 16 15 15 15 14 14 13 13 11 11 11 10 8 7 6 5 4 3
2 2 4 5 4 6 5 2 2 4 7 5 4 7 11 19 19 17 15 13 12 12 10 10 10 9 8 8 14 14 16 15 14 12 15 12 6 6 7 9 10 10 9 8 6 5 3 2 2
4 3 8 7 5 6 6 2 4 3 5 3 5 6 16 20 20 20 19 18 15 15 12 11 11 10 9 9 8 5 7 7 6 5 6 4 4 4 6 8 10 9 8 6 5 3 2 1 1
5 7 9 11 11 7 5 2 1 6 3 6 10 14 18 18 18 18 18 18 17 16 14 12 12 11 9 6 6 3 3 4 4 5 5 4 3 3 3 2 4 4 4 2 1 1 0 0 1
5 9 10 11 11 6 4 1 1 3 7 9 15 18 18 17 17 18 18 18 16 16 14 13 12 11 9 8 6 5 4 4 4 5 6 4 3 3 3 2 2 2 1 1 1 0 1 0 1
7 10 11 11 10 7 3 3 1 3 4 10 15 16 16 16 13 11 12 15 16 15 15 14 13 11 10 9 7 7 6 5 5 5 5 5 4 4 3 2 2 2 2 2 2 1 1 1 2
6 8 10 9 7 4 1 3 1 4 5 11 15 14 15 15 13 10 12 13 15 15 15 13 13 11 10 8 6 5 5 5 5 5 6 7 5 5 4 3 2 2 2 2 2 3 2 1 2
5 8 10 7 5 4 1 4 4 5 7 11 13 12 12 10 11 12 14 15 16 15 14 13 12 11 10 9 7 6 5 5 5 5 6 6 6 5 5 4 3 2 2 2 2 2 2 2 2
6 5 6 9 5 5 3 6 8 5 9 10 11 11 10 8 9 10 12 13 14 14 14 13 12 11 10 8 7 6 5 5 4 4 5 6 6 6 5 4 3 2 2 2 2 2 2 2 2
4 3 6 10 6 4 3 5 5 6 10 11 11 11 10 8 7 9 11 12 13 14 14 14 12 12 11 8 6 5 5 5 4 4 5 6 6 6 5 4 3 3 3 2 2 2 2 2 2
5 4 7 9 8 5 1 4 5 7 9 10 11 11 10 10 9 10 10 11 11 12 13 13 12 12 10 7 5 4 4 3 3 4 5 6 5 6 5 4 3 4 3 2 2 3 2 2 2
7 8 12 14 11 3 2 3 5 5 7 9 10 10 10 9 8 9 10 11 11 11 12 12 12 11 10 7 6 6 5 4 4 4 6 6 6 6 5 4 3 4 3 3 3 3 3 1 2
9 10 12 12 7 1 0 1 3 4 7 10 12 11 11 9 8 9 9 10 11 12 12 11 11 11 10 8 6 5 5 4 4 4 5 6 6 6 6 5 4 4 3 4 3 3 2 1 2
12 10 9 8 5 4 3 4 3 2 1 4 7 9 11 13 13 11 11 10 11 12 12 12 11 11 9 9 6 5 4 3 3 3 3 4 6 6 5 6 5 4 4 3 3 3 4 2 0
12 13 9 6 2 3 2 1 6 3 1 3 5 7 8 10 10 10 10 10 11 11 10 10 10 10 9 10 9 10 7 6 5 4 4 4 5 6 6 6 5 4 4 4 3 3 3 3 1
12 12 6 3 1 2 3 2 6 3 2 3 6 9 9 10 11 11 10 10 10 10 10 10 10 9 9 9 11 10 7 5 4 4 6 5 4 5 6 6 5 5 4 4 4 3 3 3 3
8 2 4 6 6 2 4 2 5 4 5 3 3 7 9 10 10 9 8 7 8 9 9 10 10 10 9 10 10 10 9 8 8 7 6 5 3 3 5 5 5 5 4 4 4 4 4 3 3
3 4 4 5 5 5 4 2 7 7 5 4 5 6 8 10 10 10 9 8 8 9 10 9 10 9 9 9 9 9 9 9 10 8 7 6 4 3 5 5 5 4 4 4 4 4 4 3 3
5 10 9 5 5 5 3 3 6 6 2 2 5 6 8 9 9 10 10 9 9 10 10 10 10 9 9 9 8 8 8 7 6 7 6 7 5 4 5 5 5 6 5 5 4 3 3 3 3
5 5 10 8 3 1 3 3 5 2 1 3 5 7 8 9 10 10 9 9 9 9 10 11 10 8 9 9 8 7 8 7 7 7 6 5 4 5 6 6 6 6 6 5 5 3 3 3 3
9 8 6 6 5 2 3 3 5 4 4 5 6 7 7 8 8 8 8 8 8 8 8 9 10 9 8 8 8 8 7 7 7 6 7 6 6 5 6 6 6 6 5 5 5 3 3 4 3
2 3 5 5 6 7 3 6 6 8 7 7 7 8 9 9 9 8 8 8 8 8 8 9 9 8 7 8 7 7 7 7 6 6 7 6 6 6 7 7 6 6 6 6 5 5 5 5 4
4 4 7 5 3 5 5 7 4 5 5 5 6 7 8 9 8 8 8 8 8 8 8 9 9 9 8 8 7 7 6 7 6 6 7 7 7 7 7 7 7 7 6 6 7 6 5 5 5
Wind_Direction
204 199 178 56 42 36 287 257 147 88 69 73 86 92 96 96 134 148 134 137 135 141 147 147 145 141 138 135 132 129 125 122 120 118 117 115 114 114 113 112 111 111 111 110 109 109 109 109 110
202 192 123 52 67 15 280 225 132 129 125 110 93 94 88 82 105 113 122 141 139 141 144 146 146 142 140 138 136 133 130 127 125 124 122 119 119 118 117 115 114 114 114 113 112 112 112 112 112
232 199 105 74 101 206 254 278 193 124 128 119 107 86 102 128 124 128 142 142 138 141 143 149 146 144 142 140 139 137 134 132 131 129 127 125 123 121 120 118 118 118 116 115 115 115 115 114 113
201 50 51 70 257 249 234 254 246 118 106 104 109 91 88 138 137 137 140 142 139 141 144 150 147 145 144 143 142 140 139 137 134 133 132 130 127 124 123 122 121 120 118 118 117 117 117 116 115
74 73 42 324 272 272 256 235 201 136 135 119 112 111 71 49 123 135 143 145 141 142 145 150 148 148 147 146 145 144 142 140 138 137 135 132 130 128 127 125 123 123 122 122 120 118 116 115 115
47 69 61 298 296 295 272 226 137 122 125 122 115 115 94 133 134 143 145 146 145 145 146 149 151 150 150 149 148 146 144 143 142 140 137 135 134 132 131 129 128 128 127 126 125 121 116 110 106
127 107 202 241 281 283 263 223 140 134 133 141 130 113 120 150 147 145 144 143 144 145 146 147 151 152 153 152 150 149 148 147 146 144 142 140 139 137 136 134 133 133 133 133 132 127 119 111 106
160 104 275 256 262 281 268 175 136 128 134 135 131 138 161 167 149 142 140 139 142 144 147 146 146 146 148 152 153 152 152 151 150 148 147 146 145 143 141 139 140 140 141 143 141 137 130 120 110
138 86 254 240 242 273 286 104 82 112 124 137 149 157 158 149 144 141 141 141 147 150 151 149 146 144 144 149 157 155 154 155 153 153 153 147 138 138 142 150 150 149 150 151 151 151 147 132 106
136 183 238 232 233 260 275 184 162 116 113 103 91 110 135 146 150 152 155 157 159 158 159 156 153 151 151 157 148 150 152 150 145 147 146 137 141 155 156 165 159 158 158 157 161 174 170 126 68
187 216 249 264 262 259 269 297 126 132 152 174 159 150 150 153 157 160 163 163 163 162 162 161 158 155 157 145 146 150 145 144 147 152 149 146 149 160 151 153 158 156 157 147 179 197 27 122 135
245 260 262 269 275 273 267 263 61 152 192 179 161 154 157 162 167 168 166 165 162 163 163 162 162 160 157 148 156 158 155 158 163 169 164 154 152 156 156 159 164 159 147 167 170 199 271 232 160
254 265 275 276 282 277 293 290 221 227 166 143 147 152 161 166 170 167 164 164 162 164 163 163 162 164 160 156 163 166 165 170 173 170 168 162 159 162 162 168 172 174 171 168 169 175 169 148 135
262 287 297 288 280 274 244 278 332 247 158 136 145 158 167 169 165 159 160 162 163 164 162 164 162 164 161 161 163 164 169 169 166 167 168 163 162 161 157 161 162 166 170 165 158 157 136 126 113
315 319 311 293 281 268 71 317 259 217 152 149 155 159 166 166 162 166 165 161 162 163 161 168 167 163 160 158 164 165 172 168 164 163 161 158 155 155 150 152 153 164 155 138 116 108 93 104 107
343 331 307 294 294 272 145 251 260 189 150 157 160 160 163 165 164 160 155 155 159 159 160 165 169 161 162 160 165 166 167 165 164 157 154 154 152 151 146 147 152 147 127 118 114 103 89 86 107
347 301 288 299 290 272 166 235 249 176 156 160 161 162 161 157 155 156 156 158 160 159 160 163 160 162 164 158 158 155 156 160 159 154 151 153 153 149 144 143 144 133 118 114 127 106 113 116 123
251 272 289 288 292 307 243 228 201 177 163 161 161 161 161 166 171 164 158 158 157 156 157 159 158 160 158 151 147 144 144 154 154 154 154 154 153 147 141 142 141 130 118 114 113 114 102 125 141
246 273 281 281 285 301 236 206 207 189 167 157 159 162 164 168 165 158 157 156 151 153 157 160 159 161 158 155 156 154 158 161 159 161 157 155 152 147 144 143 140 136 136 148 139 118 103 93 109
256 268 276 288 294 345 108 259 223 182 182 173 165 167 166 160 156 160 161 161 163 164 164 163 166 168 167 163 160 152 150 157 161 158 158 158 154 155 157 149 151 146 135 133 129 120 115 85 112
262 251 253 266 308 9 70 356 315 288 193 160 154 161 165 166 166 167 167 169 167 170 172 172 172 169 165 156 143 133 122 120 135 152 163 166 158 156 153 154 151 149 145 150 150 136 132 136 61
259 256 252 269 336 319 70 246 284 275 266 175 163 164 167 166 163 166 166 169 173 174 171 167 169 166 163 158 157 156 160 165 175 167 164 164 160 160 158 154 153 149 148 154 159 145 140 137 135
238 251 246 255 122 7 359 125 285 326 283 229 186 175 172 168 166 167 171 174 171 168 169 166 166 164 164 166 164 163 165 166 154 153 157 162 162 163 162 158 152 151 152 157 150 135 132 137 145
241 277 10 43 67 1 274 170 270 250 231 236 191 174 167 164 163 163 164 159 162 166 172 167 168 170 171 169 168 169 168 164 158 163 166 163 159 164 164 159 155 158 158 162 157 146 139 143 143
245 98 27 355 11 259 261 179 246 253 224 203 196 180 165 162 161 162 162 163 164 171 173 169 170 173 174 172 173 174 171 168 169 170 169 163 163 172 179 165 162 163 168 168 157 150 155 157 152
208 144 158 193 217 264 300 223 257 274 239 194 174 161 161 163 164 165 169 169 170 174 172 167 170 170 170 170 173 173 170 168 170 172 168 172 174 178 175 169 171 171 171 171 161 154 169 166 162
186 187 173 145 171 204 280 286 303 324 50 108 130 145 161 166 167 166 167 169 170 169 170 170 170 169 172 172 171 168 168 169 171 170 166 169 172 174 174 172 175 179 176 171 163 169 181 169 172
177 167 106 120 151 221 276 251 229 224 198 162 156 160 162 158 159 162 165 169 172 170 168 169 169 171 173 171 174 173 171 173 172 168 170 172 174 171 168 173 177 180 179 174 169 170 181 178 188
172 138 126 133 151 153 205 263 229 198 188 177 172 163 161 161 162 161 164 166 169 164 163 165 168 166 169 171 169 165 169 171 171 175 177 175 176 174 176 179 179 180 180 179 177 186 184 188 202
137 158 139 147 211 160 163 260 274 181 179 169 167 161 159 157 159 161 162 161 160 162 165 168 171 172 176 171 163 164 165 167 172 179 180 177 178 179 180 177 181 187 186 183 184 195 194 195 205